Total_Precipitation_Accumulation
0.15 0.15 0.16 0.15 0.16 0.18 0.21 0.21 0.22 0.21 0.23 0.26 0.32 0.36 0.38 0.45 0.63 0.80 0.79 0.71 0.76 0.85 0.95 1.05 1.10 1.15 1.14 1.02 0.97 0.94 0.95 1.03 0.98 0.83 0.77 0.79 0.68 0.52 0.46 0.43 0.41 0.40 0.36
0.09 0.09 0.11 0.15 0.17 0.18 0.21 0.23 0.24 0.24 0.21 0.20 0.23 0.28 0.31 0.37 0.53 0.85 1.02 1.04 1.01 0.94 1.00 1.18 1.27 1.23 1.12 1.04 1.03 0.98 0.97 1.06 1.00 0.91 0.89 0.83 0.75 0.66 0.56 0.50 0.43 0.39 0.38
0.09 0.09 0.10 0.13 0.16 0.20 0.22 0.23 0.22 0.23 0.23 0.22 0.24 0.29 0.33 0.34 0.40 0.60 0.83 0.96 0.98 0.95 1.01 1.06 1.09 1.15 1.12 1.04 0.98 0.95 0.94 1.04 1.04 0.95 1.02 1.00 0.90 0.78 0.65 0.54 0.47 0.44 0.39
0.10 0.12 0.14 0.15 0.17 0.19 0.20 0.21 0.22 0.24 0.24 0.26 0.29 0.32 0.34 0.31 0.32 0.44 0.60 0.71 0.77 0.82 0.87 0.91 0.93 0.97 1.03 1.09 1.03 0.97 0.99 1.01 1.02 1.01 1.05 1.18 1.09 0.92 0.74 0.61 0.52 0.48 0.44
0.10 0.11 0.12 0.14 0.17 0.17 0.18 0.21 0.24 0.25 0.26 0.30 0.34 0.35 0.33 0.30 0.33 0.44 0.49 0.46 0.51 0.57 0.60 0.61 0.72 0.87 0.96 1.02 0.97 0.95 1.00 1.00 1.00 1.05 1.08 1.21 1.24 1.07 0.83 0.64 0.56 0.54 0.52
0.16 0.18 0.15 0.17 0.19 0.18 0.19 0.21 0.25 0.28 0.32 0.35 0.36 0.41 0.39 0.30 0.32 0.36 0.33 0.30 0.34 0.39 0.42 0.41 0.42 0.53 0.70 0.83 0.85 0.85 0.91 0.96 1.00 1.02 1.09 1.17 1.23 1.13 0.95 0.81 0.67 0.56 0.53
0.19 0.24 0.24 0.25 0.26 0.25 0.25 0.30 0.33 0.36 0.41 0.45 0.43 0.43 0.41 0.38 0.31 0.25 0.21 0.22 0.25 0.32 0.36 0.36 0.29 0.28 0.42 0.57 0.68 0.72 0.73 0.73 0.82 0.97 1.08 1.09 1.20 1.24 1.16 0.97 0.85 0.73 0.59
0.36 0.41 0.47 0.50 0.49 0.49 0.52 0.52 0.52 0.53 0.52 0.51 0.50 0.51 0.55 0.50 0.37 0.26 0.20 0.18 0.22 0.29 0.33 0.33 0.33 0.33 0.36 0.43 0.54 0.63 0.67 0.64 0.62 0.71 0.87 1.06 1.21 1.36 1.33 1.22 1.11 0.98 0.81
0.51 0.57 0.64 0.69 0.70 0.70 0.70 0.69 0.71 0.74 0.71 0.67 0.65 0.65 0.68 0.69 0.56 0.38 0.29 0.25 0.29 0.31 0.35 0.36 0.36 0.34 0.32 0.29 0.37 0.44 0.50 0.59 0.59 0.61 0.72 0.94 1.13 1.27 1.42 1.36 1.23 1.03 0.86
0.41 0.50 0.62 0.76 0.83 0.80 0.77 0.80 0.85 0.91 0.88 0.87 0.86 0.85 0.84 0.88 0.75 0.49 0.40 0.38 0.43 0.44 0.49 0.48 0.38 0.31 0.26 0.21 0.29 0.38 0.41 0.44 0.54 0.59 0.65 0.77 0.93 1.05 1.19 1.19 1.05 0.97 0.81
0.45 0.49 0.55 0.66 0.77 0.77 0.79 0.84 0.89 0.92 0.93 0.94 0.90 0.83 0.84 0.88 0.79 0.56 0.47 0.47 0.53 0.59 0.54 0.52 0.49 0.34 0.24 0.19 0.21 0.31 0.34 0.41 0.51 0.57 0.68 0.81 0.97 1.09 1.08 1.06 1.01 0.86 0.76
0.64 0.67 0.70 0.75 0.75 0.74 0.83 0.89 0.95 0.99 0.97 0.95 0.98 0.91 0.84 0.85 0.77 0.61 0.47 0.45 0.57 0.71 0.70 0.65 0.60 0.42 0.28 0.24 0.21 0.21 0.23 0.28 0.45 0.52 0.58 0.70 0.84 0.99 1.08 1.11 1.10 0.96 0.78
0.69 0.74 0.81 0.87 0.90 0.90 0.93 0.96 1.05 1.10 1.07 1.02 1.03 1.05 0.99 0.94 0.91 0.70 0.54 0.46 0.54 0.67 0.80 0.78 0.66 0.50 0.39 0.31 0.28 0.26 0.24 0.26 0.38 0.48 0.49 0.53 0.61 0.76 1.05 1.27 1.38 1.30 1.05
0.58 0.61 0.66 0.74 0.81 0.91 1.03 1.03 1.06 1.11 1.14 1.13 1.10 1.04 1.01 1.00 1.05 0.90 0.71 0.57 0.57 0.69 0.81 0.83 0.71 0.65 0.56 0.46 0.42 0.38 0.33 0.30 0.35 0.44 0.49 0.56 0.68 0.82 1.00 1.21 1.40 1.44 1.27
0.56 0.56 0.61 0.68 0.76 0.88 1.02 1.06 0.98 1.00 1.04 1.01 0.94 0.90 0.91 0.92 0.96 0.87 0.74 0.70 0.72 0.82 0.92 1.03 0.97 0.89 0.82 0.73 0.66 0.61 0.57 0.51 0.45 0.49 0.62 0.69 0.78 0.83 0.92 1.06 1.28 1.38 1.25
0.57 0.55 0.57 0.61 0.70 0.80 0.93 0.98 0.85 0.72 0.71 0.71 0.63 0.56 0.54 0.57 0.67 0.70 0.64 0.60 0.63 0.74 0.89 1.05 1.02 0.95 0.91 0.90 0.87 0.82 0.77 0.71 0.66 0.67 0.72 0.79 0.82 0.86 0.93 1.04 1.15 1.24 1.18
0.63 0.58 0.60 0.62 0.66 0.71 0.80 0.93 0.96 0.81 0.63 0.56 0.46 0.36 0.33 0.36 0.48 0.57 0.62 0.60 0.60 0.63 0.75 0.91 0.92 0.91 0.92 0.97 0.96 0.88 0.80 0.81 0.84 0.83 0.79 0.83 0.89 0.92 0.96 1.04 1.09 1.16 1.18
0.80 0.70 0.61 0.61 0.67 0.72 0.78 0.85 0.94 0.99 0.90 0.71 0.49 0.30 0.26 0.29 0.39 0.53 0.64 0.63 0.65 0.64 0.69 0.81 0.87 0.90 0.94 0.99 0.97 0.95 0.92 0.95 0.99 0.95 0.92 0.93 1.00 1.02 1.00 1.01 1.06 1.07 1.13
0.70 0.73 0.65 0.60 0.63 0.70 0.73 0.78 0.86 0.92 0.99 0.96 0.73 0.45 0.29 0.31 0.41 0.56 0.66 0.65 0.74 0.75 0.77 0.83 0.87 0.88 0.90 0.96 0.98 1.00 1.01 1.05 1.05 1.05 1.05 1.05 1.09 1.13 1.03 0.97 1.03 1.09 1.07
0.53 0.50 0.49 0.57 0.61 0.67 0.73 0.76 0.81 0.89 0.95 0.97 0.86 0.63 0.38 0.34 0.43 0.61 0.71 0.78 0.83 0.84 0.84 0.83 0.87 0.89 0.91 0.93 0.97 0.98 1.02 1.07 1.07 1.07 1.11 1.13 1.13 1.13 1.05 1.01 1.00 1.04 0.99
0.50 0.44 0.34 0.45 0.59 0.65 0.71 0.76 0.78 0.84 0.90 0.93 0.84 0.55 0.34 0.34 0.47 0.64 0.78 0.87 0.86 0.86 0.85 0.84 0.86 0.85 0.85 0.89 0.93 0.95 1.02 1.06 1.06 1.05 1.10 1.14 1.14 1.10 1.06 1.04 1.01 1.00 1.03
0.52 0.51 0.38 0.41 0.54 0.60 0.63 0.76 0.80 0.82 0.84 0.86 0.77 0.52 0.40 0.44 0.58 0.70 0.86 0.90 0.86 0.84 0.81 0.83 0.83 0.81 0.79 0.82 0.91 0.98 1.05 1.07 1.05 1.03 1.06 1.09 1.10 1.08 1.06 1.04 1.05 1.07 1.08
0.45 0.50 0.41 0.39 0.49 0.48 0.55 0.73 0.78 0.78 0.81 0.81 0.68 0.57 0.54 0.64 0.74 0.83 0.92 0.93 0.88 0.85 0.84 0.83 0.81 0.78 0.72 0.73 0.77 0.84 0.95 1.01 0.97 0.96 1.01 1.02 1.03 1.00 0.96 0.93 0.94 0.99 1.01
0.39 0.47 0.40 0.33 0.37 0.47 0.58 0.69 0.75 0.74 0.76 0.79 0.69 0.60 0.60 0.69 0.77 0.82 0.87 0.85 0.79 0.80 0.80 0.77 0.71 0.68 0.66 0.72 0.75 0.71 0.71 0.72 0.72 0.76 0.83 0.87 0.92 0.95 0.91 0.87 0.89 0.91 0.96
0.39 0.46 0.38 0.30 0.31 0.40 0.55 0.66 0.73 0.74 0.75 0.74 0.66 0.60 0.61 0.67 0.73 0.72 0.70 0.69 0.68 0.68 0.65 0.64 0.66 0.66 0.62 0.56 0.56 0.55 0.54 0.50 0.48 0.52 0.65 0.75 0.79 0.87 0.91 0.92 0.94 0.99 0.99
0.36 0.42 0.38 0.30 0.28 0.35 0.49 0.59 0.66 0.70 0.72 0.70 0.67 0.64 0.65 0.67 0.63 0.59 0.60 0.60 0.60 0.60 0.57 0.56 0.56 0.53 0.51 0.47 0.44 0.44 0.41 0.37 0.35 0.38 0.45 0.56 0.66 0.76 0.82 0.84 0.85 0.91 0.95